This is the latest recevied weather packets stored in our database for station/object K5KVN. If no packets are shown the sender has not sent any weather packets the latest 10 day(s).
| Time | Temp. | Humidity | Pressure | Rain* | Wind** | Luminosity | Snow |
|---|---|---|---|---|---|---|---|
| 1778092278 | 12.78° C | 71% | 1017.5 hPa | 0 mm | - | - | - |
| 1778091739 | 13.33° C | 71% | 1017.7 hPa | 0 mm | - | - | - |
| 1778091137 | 13.33° C | 70% | 1018.1 hPa | 0 mm | - | - | - |
| 1778090478 | 12.78° C | 72% | 1018.2 hPa | 0 mm | - | - | - |
| 1778089878 | 12.22° C | 71% | 1018.7 hPa | 0 mm | - | - | - |
| 1778089277 | 12.22° C | 72% | 1018.9 hPa | 0 mm | - | - | - |
| 1778088676 | 12.22° C | 77% | 1019 hPa | 0 mm | - | - | - |
| 1778088077 | 11.67° C | 76% | 1019.3 hPa | 0 mm | - | - | - |
| 1778087473 | 11.67° C | 75% | 1019.2 hPa | 0 mm | - | - | - |
| 1778086874 | 11.67° C | 76% | 1019 hPa | 0 mm | - | - | - |
| 1778086271 | 11.67° C | 77% | 1018.8 hPa | 0 mm | - | - | - |
| 1778085672 | 11.11° C | 79% | 1018.5 hPa | 0 mm | - | - | - |
| 1778085073 | 10.56° C | 78% | 1018.4 hPa | 0 mm | - | - | - |
| 1778084471 | 10.56° C | 79% | 1018 hPa | 0 mm | - | - | - |
| 1778083872 | 10.56° C | 77% | 1017.9 hPa | 0 mm | - | - | - |
| 1778083268 | 11.11° C | 77% | 1017.9 hPa | 0 mm | - | - | - |
| 1778082667 | 11.11° C | 77% | 1017.7 hPa | 0 mm | - | - | - |
| 1778082067 | 11.11° C | 79% | 1017.2 hPa | 0 mm | - | - | - |
| 1778081467 | 10.56° C | 79% | 1017.2 hPa | 0 mm | - | - | - |
| 1778080866 | 10.56° C | 79% | 1017.5 hPa | 0 mm | - | - | - |
| 1778080266 | 10.56° C | 78% | 1017.8 hPa | 0 mm | - | - | - |
| 1778079669 | 10.56° C | 79% | 1017.7 hPa | 0 mm | - | - | - |
| 1778079127 | 10.56° C | 81% | 1017.3 hPa | 0 mm | - | - | - |
| 1778078468 | 10° C | 82% | 1017.4 hPa | 0 mm | - | - | - |
| 1778077866 | 10° C | 83% | 1017.3 hPa | 0 mm | - | - | - |
* Rain latest hour (hover to see other rain measurements)
** Current wind speed in m/s (hover to see current wind gust speed)